This is the latest recevied weather packets stored in our database for station/object W5CDN. If no packets are shown the sender has not sent any weather packets the latest 10 day(s).
| Time | Temp. | Humidity | Pressure | Rain* | Wind** | Luminosity | Snow |
|---|---|---|---|---|---|---|---|
| 1787488290 | 25.56° C | 88% | 1015.6 hPa | 0 mm | - | - | - |
| 1787487990 | 25.56° C | 88% | 1015.4 hPa | 0 mm | - | - | - |
| 1787487690 | 25.56° C | 88% | 1015.5 hPa | 0 mm | - | - | - |
| 1787487390 | 26.11° C | 87% | 1015.5 hPa | 0 mm | - | - | - |
| 1787487090 | 26.11° C | 85% | 1015.6 hPa | 0 mm | - | - | - |
| 1787486790 | 26.11° C | 85% | 1015.4 hPa | 0 mm | - | - | - |
| 1787486490 | 26.11° C | 85% | 1015.5 hPa | 0 mm | - | - | - |
| 1787486190 | 26.11° C | 85% | 1015.6 hPa | 0 mm | - | - | - |
| 1787485890 | 26.11° C | 85% | 1015.6 hPa | 0 mm | - | - | - |
| 1787485590 | 26.11° C | 85% | 1015.7 hPa | 0 mm | - | - | - |
| 1787485290 | 26.11° C | 86% | 1015.7 hPa | 0 mm | - | - | - |
| 1787484990 | 26.11° C | 87% | 1015.4 hPa | 0 mm | - | - | - |
| 1787484690 | 26.67° C | 85% | 1015.5 hPa | 0 mm | - | - | - |
| 1787484390 | 26.67° C | 84% | 1014.9 hPa | 0 mm | - | - | - |
| 1787484090 | 26.67° C | 84% | 1014.7 hPa | 0 mm | - | - | - |
| 1787483790 | 26.67° C | 83% | 1014.9 hPa | 0 mm | - | - | - |
| 1787483490 | 26.67° C | 81% | 1014.5 hPa | 0 mm | - | - | - |
| 1787483190 | 26.67° C | 82% | 1014.6 hPa | 0 mm | - | - | - |
| 1787482890 | 26.67° C | 84% | 1014.5 hPa | 0 mm | - | - | - |
| 1787482590 | 26.11° C | 85% | 1014.6 hPa | 0 mm | - | - | - |
| 1787482290 | 26.11° C | 86% | 1014.6 hPa | 0 mm | - | - | - |
| 1787481990 | 26.11° C | 90% | 1014.8 hPa | 0 mm | - | - | - |
| 1787481690 | 26.11° C | 87% | 1014.7 hPa | 0 mm | - | - | - |
| 1787481390 | 26.11° C | 85% | 1014.6 hPa | 0 mm | - | - | - |
| 1787481090 | 26.11° C | 86% | 1014.7 hPa | 0 mm | - | - | - |
* Rain latest hour (hover to see other rain measurements)
** Current wind speed in m/s (hover to see current wind gust speed)